�������l�o���
Date,Time,MP-1(��Sv/h),MP-2(��Sv/h),MP-3(��Sv/h),MP-4(��Sv/h),MP-5(��Sv/h),MP-6(��Sv/h),MP-7(��Sv/h),MP-8(��Sv/h),����,����(m/s),���J
2020/01/14,00:00,0.700,1.002,0.669,1.255,0.883,0.408,0.706,0.671,�k��,6.3,��
2020/01/14,00:10,0.698,1.002,0.667,1.255,0.881,0.406,0.707,0.670,�k��,6.7,��
2020/01/14,00:20,0.697,1.001,0.667,1.255,0.879,0.404,0.707,0.671,�k��,6.9,��
2020/01/14,00:30,0.696,1.000,0.665,1.255,0.880,0.403,0.706,0.670,�k��,6.6,�L
2020/01/14,00:40,0.696,1.001,0.664,1.254,0.882,0.405,0.706,0.671,�k��,6.9,�L
2020/01/14,00:50,0.696,0.999,0.664,1.253,0.881,0.404,0.706,0.670,�k��,7.4,�L
2020/01/14,01:00,0.696,1.000,0.664,1.254,0.880,0.402,0.705,0.671,���k��,6.6,�L
2020/01/14,01:10,0.697,0.998,0.665,1.252,0.882,0.402,0.705,0.669,���k��,6.3,�L
2020/01/14,01:20,0.695,0.998,0.664,1.254,0.879,0.405,0.705,0.671,�k��,5.2,�L
2020/01/14,01:30,0.695,0.998,0.664,1.252,0.879,0.406,0.705,0.671,�k��,4.5,�L
2020/01/14,01:40,0.696,1.000,0.666,1.254,0.881,0.405,0.707,0.671,�k��,4.6,�L
2020/01/14,01:50,0.694,0.999,0.666,1.253,0.879,0.406,0.706,0.669,�k�k��,5.5,�L
2020/01/14,02:00,0.697,0.996,0.665,1.254,0.878,0.404,0.706,0.671,�k�k��,5.6,�L
2020/01/14,02:10,0.696,0.996,0.665,1.254,0.880,0.404,0.705,0.670,�k�k��,6.4,��
2020/01/14,02:20,0.693,0.997,0.665,1.251,0.878,0.403,0.706,0.670,�k�k��,6.3,��
2020/01/14,02:30,0.693,0.996,0.663,1.253,0.876,0.404,0.704,0.669,�k�k��,6.0,��
2020/01/14,02:40,0.695,0.996,0.662,1.251,0.878,0.401,0.704,0.670,�k�k��,5.5,��
2020/01/14,02:50,0.692,0.996,0.661,1.251,0.876,0.403,0.705,0.670,�k�k��,4.7,�L
2020/01/14,03:00,0.692,0.996,0.663,1.252,0.877,0.401,0.704,0.670,�k,4.0,��
2020/01/14,03:10,0.693,0.996,0.662,1.250,0.875,0.402,0.704,0.670,�k�k��,3.2,��
2020/01/14,03:20,0.691,0.994,0.663,1.249,0.875,0.400,0.703,0.669,�k�k��,3.8,�L
2020/01/14,03:30,0.692,0.998,0.661,1.248,0.874,0.401,0.703,0.668,�k�k��,4.1,�L
2020/01/14,03:40,0.692,0.996,0.661,1.251,0.876,0.400,0.702,0.669,�k,3.5,�L
2020/01/14,03:50,0.692,0.995,0.660,1.247,0.875,0.401,0.704,0.669,�k�k��,4.2,�L
2020/01/14,04:00,0.693,0.996,0.661,1.249,0.873,0.401,0.703,0.668,�k,3.3,��
2020/01/14,04:10,0.691,0.995,0.661,1.250,0.874,0.400,0.704,0.668,�k�k��,3.8,��
2020/01/14,04:20,0.691,0.993,0.660,1.249,0.875,0.401,0.702,0.670,�k�k��,3.0,��
2020/01/14,04:30,0.690,0.996,0.663,1.249,0.875,0.399,0.703,0.671,�k�k��,2.1,��
2020/01/14,04:40,0.690,0.997,0.660,1.247,0.875,0.402,0.704,0.668,�k��,2.8,��
2020/01/14,04:50,0.690,0.997,0.661,1.247,0.874,0.400,0.703,0.668,�k��,2.9,��
2020/01/14,05:00,0.692,0.995,0.662,1.252,0.876,0.401,0.704,0.666,���k��,3.4,�L
2020/01/14,05:10,0.691,0.994,0.661,1.249,0.876,0.400,0.703,0.667,�k��,2.5,��
2020/01/14,05:20,0.691,0.995,0.661,1.248,0.873,0.400,0.703,0.668,�k��,3.0,��
2020/01/14,05:30,0.692,0.995,0.661,1.250,0.875,0.402,0.702,0.669,�k�k��,2.2,��
2020/01/14,05:40,0.691,0.995,0.661,1.249,0.875,0.400,0.703,0.667,�k��,1.5,��
2020/01/14,05:50,0.690,0.995,0.662,1.250,0.877,0.401,0.705,0.671,�k��,2.3,�L
2020/01/14,06:00,0.692,0.994,0.663,1.251,0.876,0.400,0.703,0.668,�k��,1.5,�L
2020/01/14,06:10,0.692,0.994,0.661,1.250,0.877,0.400,0.705,0.669,�k�k��,1.3,��
2020/01/14,06:20,0.690,0.995,0.662,1.249,0.877,0.400,0.703,0.667,�k,2.7,��
2020/01/14,06:30,0.692,0.993,0.661,1.250,0.877,0.400,0.702,0.670,�k,2.3,��
2020/01/14,06:40,0.691,0.999,0.662,1.249,0.877,0.401,0.703,0.668,�k�k��,1.1,��
2020/01/14,06:50,0.691,0.994,0.661,1.250,0.875,0.403,0.703,0.667,�k�k��,1.5,��
2020/01/14,07:00,0.692,0.996,0.661,1.250,0.874,0.402,0.702,0.669,�k��,1.1,��
2020/01/14,07:10,0.690,0.996,0.661,1.250,0.873,0.402,0.703,0.670,�k��,1.0,��
2020/01/14,07:20,0.692,0.995,0.663,1.251,0.874,0.401,0.703,0.670,-,CALM,��
2020/01/14,07:30,0.692,0.995,0.661,1.250,0.875,0.402,0.702,0.669,���쐼,0.6,��
2020/01/14,07:40,0.693,0.994,0.662,1.251,0.876,0.403,0.702,0.669,�쐼,1.2,��
2020/01/14,07:50,0.692,0.992,0.661,1.249,0.874,0.401,0.702,0.670,��쐼,1.6,��
2020/01/14,08:00,0.689,0.995,0.660,1.253,0.874,0.402,0.702,0.669,��쐼,2.1,��
2020/01/14,08:10,0.692,0.996,0.662,1.250,0.875,0.401,0.703,0.669,��,1.2,��
2020/01/14,08:20,0.692,0.996,0.661,1.250,0.876,0.402,0.702,0.667,�쐼,1.0,��
2020/01/14,08:30,0.692,0.995,0.659,1.249,0.876,0.402,0.702,0.670,�쐼,1.3,��
2020/01/14,08:40,0.692,0.997,0.661,1.250,0.876,0.400,0.704,0.669,�쐼,0.9,��
2020/01/14,08:50,0.692,0.995,0.660,1.252,0.876,0.401,0.703,0.668,��쓌,2.1,��
2020/01/14,09:00,0.693,0.994,0.658,1.251,0.874,0.401,0.703,0.670,��쓌,2.3,��
2020/01/14,09:10,0.695,0.992,0.660,1.252,0.875,0.400,0.704,0.669,��쓌,2.0,��
2020/01/14,09:20,0.694,0.992,0.659,1.249,0.873,0.402,0.704,0.668,��,2.5,��
2020/01/14,09:30,0.694,0.996,0.658,1.250,0.865,0.401,0.704,0.669,��쓌,3.2,��
2020/01/14,09:40,0.694,0.994,0.661,1.250,0.864,0.401,0.704,0.668,��쓌,2.0,��
2020/01/14,09:50,0.694,0.993,0.656,1.250,0.866,0.399,0.702,0.669,��쓌,2.1,��
2020/01/14,10:00,0.695,0.995,0.656,1.253,0.861,0.402,0.702,0.670,��쓌,1.9,��
2020/01/14,10:10,0.695,0.993,0.658,1.249,0.864,0.402,0.702,0.668,��쓌,2.7,��
2020/01/14,10:20,0.696,0.992,0.657,1.251,0.860,0.401,0.701,0.671,�쓌,3.1,��
2020/01/14,10:30,0.698,0.992,0.658,1.251,0.856,0.400,0.700,0.668,��쓌,2.8,��
2020/01/14,10:40,0.696,0.993,0.657,1.251,0.850,0.403,0.703,0.670,��쓌,3.2,��
2020/01/14,10:50,0.695,0.994,0.658,1.249,0.853,0.401,0.704,0.669,���쓌,2.7,��
2020/01/14,11:00,0.695,0.995,0.659,1.250,0.859,0.401,0.703,0.668,���쓌,3.0,��
2020/01/14,11:10,0.695,0.994,0.662,1.250,0.862,0.402,0.702,0.669,��쓌,3.4,��
2020/01/14,11:20,0.697,0.995,0.657,1.249,0.863,0.402,0.704,0.671,��쓌,3.8,��
2020/01/14,11:30,0.697,0.996,0.658,1.252,0.858,0.402,0.702,0.669,��쓌,3.5,��
2020/01/14,11:40,0.696,0.996,0.660,1.251,0.859,0.403,0.701,0.668,�쓌,2.5,��
2020/01/14,11:50,0.698,0.996,0.660,1.253,0.863,0.403,0.701,0.669,��쓌,3.2,��
2020/01/14,12:00,0.698,0.997,0.661,1.248,0.870,0.402,0.703,0.669,�쓌,3.9,��
2020/01/14,12:10,0.697,0.997,0.661,1.251,0.870,0.402,0.704,0.670,��쓌,3.5,��
2020/01/14,12:20,0.697,0.998,0.661,1.251,0.870,0.402,0.702,0.671,��쓌,4.9,��
2020/01/14,12:30,0.698,1.000,0.659,1.252,0.869,0.403,0.705,0.670,��쓌,5.2,��
2020/01/14,12:40,0.698,0.997,0.662,1.252,0.859,0.402,0.704,0.671,��쓌,4.3,��
2020/01/14,12:50,0.698,0.999,0.661,1.248,0.854,0.403,0.704,0.670,��,4.6,��
2020/01/14,13:00,0.697,0.999,0.660,1.252,0.834,0.404,0.703,0.669,��쓌,4.1,��
2020/01/14,13:10,0.696,1.002,0.659,1.251,0.846,0.404,0.703,0.668,��쓌,2.8,��
2020/01/14,13:20,0.699,1.003,0.658,1.250,0.824,0.404,0.703,0.670,��쓌,3.0,��
2020/01/14,13:30,0.698,1.000,0.659,1.253,0.800,0.403,0.702,0.670,��,3.2,��
2020/01/14,13:40,0.698,1.001,0.661,1.253,0.799,0.405,0.703,0.670,��쓌,4.3,��
2020/01/14,13:50,0.699,1.002,0.662,1.253,0.851,0.404,0.703,0.669,��,4.1,��
2020/01/14,14:00,0.699,1.004,0.660,1.253,0.855,0.404,0.702,0.670,��,3.1,��
2020/01/14,14:10,0.698,1.003,0.663,1.253,0.856,0.404,0.704,0.669,��쐼,2.3,��
2020/01/14,14:20,0.698,1.002,0.661,1.251,0.872,0.406,0.703,0.670,��쓌,2.7,��
2020/01/14,14:30,0.700,1.003,0.662,1.252,0.882,0.404,0.703,0.672,��,1.4,��
2020/01/14,14:40,0.697,1.004,0.663,1.252,0.886,0.403,0.701,0.670,���k��,2.2,��
2020/01/14,14:50,0.700,1.002,0.664,1.253,0.886,0.404,0.705,0.671,��쓌,2.4,��
2020/01/14,15:00,0.700,1.003,0.663,1.254,0.882,0.405,0.704,0.669,��,4.0,��
2020/01/14,15:10,0.699,1.006,0.663,1.252,0.883,0.405,0.704,0.670,��,3.4,��
2020/01/14,15:20,0.700,1.005,0.664,1.253,0.883,0.404,0.704,0.670,��,4.0,��
2020/01/14,15:30,0.699,1.005,0.664,1.253,0.884,0.404,0.705,0.670,��,3.5,��
2020/01/14,15:40,0.699,1.005,0.663,1.253,0.886,0.403,0.705,0.671,��,3.8,��
2020/01/14,15:50,0.699,1.005,0.664,1.251,0.884,0.404,0.704,0.670,��쓌,3.4,��
2020/01/14,16:00,0.701,1.005,0.664,1.251,0.885,0.404,0.704,0.671,��,2.2,��
2020/01/14,16:10,0.703,1.007,0.663,1.251,0.885,0.404,0.705,0.669,-,CALM,��
2020/01/14,16:20,0.700,1.004,0.662,1.251,0.882,0.405,0.706,0.670,��,0.9,��
2020/01/14,16:30,0.701,1.007,0.664,1.253,0.885,0.405,0.705,0.671,��,2.1,��
2020/01/14,16:40,0.702,1.005,0.664,1.251,0.885,0.404,0.706,0.668,��쐼,1.3,��
2020/01/14,16:50,0.703,1.004,0.664,1.251,0.882,0.403,0.704,0.671,��쐼,0.8,��
2020/01/14,17:00,0.702,1.005,0.663,1.253,0.885,0.404,0.705,0.668,��,1.9,��
2020/01/14,17:10,0.702,1.006,0.664,1.254,0.883,0.404,0.705,0.670,�쐼,1.6,��
2020/01/14,17:20,0.702,1.003,0.664,1.251,0.884,0.405,0.704,0.669,��쐼,2.1,��
2020/01/14,17:30,0.703,1.005,0.662,1.252,0.885,0.403,0.705,0.668,�쐼,1.4,��
2020/01/14,17:40,0.702,1.004,0.664,1.252,0.882,0.405,0.705,0.670,�쐼,2.3,��
2020/01/14,17:50,0.702,1.003,0.665,1.252,0.886,0.404,0.704,0.670,�쐼,1.3,��
2020/01/14,18:00,0.702,1.006,0.662,1.254,0.882,0.404,0.705,0.669,�k,3.9,��
2020/01/14,18:10,0.700,1.004,0.663,1.252,0.885,0.403,0.706,0.672,�k�k��,5.5,��
2020/01/14,18:20,0.702,1.003,0.662,1.256,0.885,0.404,0.706,0.670,�k�k��,6.6,��
2020/01/14,18:30,0.701,1.006,0.663,1.252,0.884,0.403,0.706,0.670,�k�k��,6.6,��
2020/01/14,18:40,0.702,1.004,0.663,1.254,0.884,0.402,0.704,0.668,�k�k��,7.2,��
2020/01/14,18:50,0.702,1.005,0.664,1.255,0.881,0.403,0.705,0.672,�k�k��,6.3,��
2020/01/14,19:00,0.701,1.002,0.664,1.253,0.885,0.402,0.702,0.670,�k�k��,6.6,��
2020/01/14,19:10,0.700,1.005,0.663,1.251,0.884,0.403,0.702,0.670,�k�k��,6.6,��
2020/01/14,19:20,0.701,1.004,0.665,1.252,0.885,0.401,0.703,0.670,�k�k��,5.5,�L
2020/01/14,19:30,0.701,1.005,0.664,1.253,0.884,0.402,0.703,0.671,�k�k��,5.8,�L
2020/01/14,19:40,0.701,1.000,0.664,1.253,0.885,0.404,0.705,0.670,�k�k��,6.0,��
2020/01/14,19:50,0.701,1.004,0.662,1.252,0.885,0.402,0.705,0.670,�k�k��,6.3,��
2020/01/14,20:00,0.701,1.005,0.662,1.254,0.884,0.402,0.704,0.669,�k�k��,6.6,��
2020/01/14,20:10,0.701,1.002,0.664,1.253,0.883,0.403,0.705,0.669,�k�k��,6.6,��
2020/01/14,20:20,0.700,1.004,0.664,1.253,0.885,0.401,0.704,0.670,�k�k��,6.0,�L
2020/01/14,20:30,0.702,1.003,0.662,1.254,0.883,0.403,0.703,0.669,�k�k��,6.3,��
2020/01/14,20:40,0.700,1.002,0.663,1.253,0.884,0.401,0.702,0.670,�k�k��,4.9,��
2020/01/14,20:50,0.700,1.004,0.663,1.252,0.882,0.402,0.703,0.669,�k��,5.5,��
2020/01/14,21:00,0.704,1.004,0.663,1.254,0.884,0.402,0.706,0.669,�k�k��,5.3,��
2020/01/14,21:10,0.701,1.003,0.664,1.252,0.884,0.401,0.706,0.669,�k��,5.8,��
2020/01/14,21:20,0.700,1.005,0.664,1.253,0.886,0.402,0.705,0.669,�k��,5.0,��
2020/01/14,21:30,0.699,1.004,0.662,1.256,0.885,0.402,0.706,0.669,�k��,6.3,��
2020/01/14,21:40,0.700,1.004,0.665,1.253,0.885,0.402,0.706,0.671,�k��,6.3,��
2020/01/14,21:50,0.701,1.005,0.664,1.253,0.883,0.401,0.704,0.669,�k��,5.8,��
2020/01/14,22:00,0.700,1.004,0.664,1.253,0.886,0.402,0.704,0.670,�k��,5.3,��
2020/01/14,22:10,0.701,1.004,0.665,1.252,0.885,0.402,0.706,0.669,�k��,4.9,��
2020/01/14,22:20,0.701,1.002,0.664,1.254,0.884,0.401,0.707,0.669,�k��,5.8,��
2020/01/14,22:30,0.699,1.004,0.664,1.253,0.885,0.402,0.707,0.670,�k�k��,6.0,��
2020/01/14,22:40,0.698,1.004,0.662,1.253,0.884,0.401,0.705,0.669,�k�k��,7.4,��
2020/01/14,22:50,0.700,1.004,0.662,1.252,0.883,0.402,0.706,0.669,�k�k��,5.6,��
2020/01/14,23:00,0.699,1.004,0.663,1.252,0.884,0.401,0.705,0.670,�k�k��,6.4,��
2020/01/14,23:10,0.700,1.004,0.664,1.254,0.886,0.402,0.706,0.671,�k��,6.1,��
2020/01/14,23:20,0.699,1.004,0.664,1.253,0.885,0.403,0.706,0.670,�k��,5.5,��
2020/01/14,23:30,0.702,1.002,0.663,1.254,0.884,0.401,0.705,0.671,�k��,6.3,��
2020/01/14,23:40,0.700,1.006,0.662,1.254,0.883,0.401,0.706,0.671,�k��,5.6,��
2020/01/14,23:50,0.700,1.004,0.664,1.255,0.883,0.402,0.706,0.671,�k��,6.6,��
